When you browse on this site, cookies collect data to enhance your experience and personalize the content and advertising you see.
Visit our Privacy Policy to learn more. By continuing to use the site, you agree to this use of cookies and data.
  • In Germany
  • List of Countries
  • For 7 days
  • Water Temperature
  • Weather Map
  • Weather Widgets
  • user-avatar
    Login

    Hourly Weather Canberra

    Today, 22 August, Thursday

    Time Temperature Precipitation Wind Pressure Humidity
    00:00 +6°C° 0 mm 5 mps 706 mmHg 81%
    01:00 +5°C° 0 mm 6 mps 706 mmHg 80%
    02:00 +7°C° 0 mm 6 mps 706 mmHg 77%
    03:00 +7°C° 0 mm 6 mps 705 mmHg 75%
    04:00 +7°C° 0 mm 6 mps 705 mmHg 73%
    05:00 +7°C° 0 mm 5 mps 705 mmHg 73%
    06:00 +7°C° 0 mm 5 mps 705 mmHg 72%
    07:00 +7°C° 0 mm 5 mps 706 mmHg 72%
    08:00 +8°C° 0 mm 5 mps 706 mmHg 62%
    09:00 +9°C° 0 mm 5 mps 707 mmHg 51%
    10:00 +12°C° 0 mm 5 mps 708 mmHg 43%
    11:00 +12°C° 0 mm 5 mps 708 mmHg 40%
    12:00 +13°C° 0 mm 5 mps 708 mmHg 36%
    13:00 +13°C° 0 mm 4 mps 708 mmHg 32%
    14:00 +13°C° 0 mm 4 mps 709 mmHg 35%
    15:00 +12°C° 0 mm 4 mps 709 mmHg 37%
    16:00 +11°C° 0 mm 4 mps 710 mmHg 39%
    17:00 +8°C° 0 mm 4 mps 710 mmHg 46%
    18:00 +7°C° 0 mm 3 mps 711 mmHg 53%
    19:00 +4°C° 0 mm 3 mps 711 mmHg 60%
    20:00 +4°C° 0 mm 2 mps 712 mmHg 64%
    21:00 +3°C° 0 mm 2 mps 713 mmHg 69%
    22:00 +2°C° 0 mm 2 mps 713 mmHg 70%
    23:00 +3°C° 0 mm 1 mps 713 mmHg 74%

    Tomorrow, 23 August, Friday

    Time Temperature Precipitation Wind Pressure Humidity
    00:00 +2°C° 0 mm 1 mps 713 mmHg 78%
    01:00 +1°C° 0 mm 1 mps 713 mmHg 82%
    02:00 +1°C° 0 mm 1 mps 713 mmHg 82%
    03:00 0°C° 0 mm 1 mps 713 mmHg 82%
    04:00 0°C° 0 mm 1 mps 713 mmHg 82%
    05:00 0°C° 0 mm 1 mps 713 mmHg 79%
    06:00 -1°C° 0 mm 0 mps 714 mmHg 76%
    07:00 -1°C° 0 mm 0 mps 714 mmHg 73%
    08:00 +3°C° 0 mm 1 mps 714 mmHg 63%
    09:00 +7°C° 0 mm 1 mps 715 mmHg 52%
    10:00 +9°C° 0 mm 2 mps 715 mmHg 42%
    11:00 +10°C° 0 mm 2 mps 715 mmHg 42%
    12:00 +12°C° 0 mm 3 mps 714 mmHg 41%
    13:00 +13°C° 0 mm 4 mps 714 mmHg 41%
    14:00 +13°C° 0 mm 4 mps 713 mmHg 44%
    15:00 +12°C° 0 mm 4 mps 713 mmHg 48%
    16:00 +12°C° 0 mm 4 mps 712 mmHg 51%
    17:00 +8°C° 0 mm 4 mps 712 mmHg 60%
    18:00 +7°C° 0 mm 3 mps 713 mmHg 69%
    19:00 +4°C° 0 mm 3 mps 713 mmHg 78%
    20:00 +4°C° 0 mm 2 mps 712 mmHg 79%
    21:00 +3°C° 0 mm 2 mps 712 mmHg 81%
    22:00 +2°C° 0 mm 2 mps 712 mmHg 83%
    23:00 +2°C° 0 mm 2 mps 712 mmHg 83%

    Day after tomorrow, 24 August, Saturday

    Time Temperature Precipitation Wind Pressure Humidity
    00:00 +2°C° 0 mm 2 mps 711 mmHg 83%
    01:00 +1°C° 0 mm 2 mps 711 mmHg 82%
    02:00 +1°C° 0 mm 2 mps 711 mmHg 83%
    03:00 +1°C° 0 mm 2 mps 710 mmHg 84%
    04:00 +1°C° 0 mm 2 mps 710 mmHg 85%
    05:00 +1°C° 0 mm 2 mps 710 mmHg 86%
    06:00 +1°C° 0 mm 2 mps 710 mmHg 87%
    07:00 +1°C° 0 mm 2 mps 710 mmHg 87%
    08:00 +3°C° 0 mm 3 mps 710 mmHg 75%
    09:00 +6°C° 0 mm 4 mps 710 mmHg 64%
    10:00 +10°C° 0 mm 5 mps 710 mmHg 52%
    11:00 +11°C° 0 mm 6 mps 710 mmHg 49%
    12:00 +12°C° 0 mm 7 mps 709 mmHg 47%
    13:00 +14°C° 0 mm 7 mps 709 mmHg 44%
    14:00 +12°C° 0 mm 7 mps 708 mmHg 48%
    15:00 +13°C° 0 mm 6 mps 708 mmHg 51%
    16:00 +11°C° 0 mm 6 mps 708 mmHg 55%
    17:00 +10°C° 0 mm 5 mps 708 mmHg 65%
    18:00 +8°C° 0 mm 4 mps 708 mmHg 75%
    19:00 +7°C° 0 mm 3 mps 708 mmHg 85%
    20:00 +5°C° 0 mm 3 mps 708 mmHg 86%
    21:00 +6°C° 0 mm 2 mps 708 mmHg 88%
    22:00 +5°C° 0 mm 2 mps 708 mmHg 89%
    23:00 +5°C° 0 mm 2 mps 708 mmHg 89%

    25 August, Sunday

    Time Temperature Precipitation Wind Pressure Humidity
    00:00 +5°C° 0 mm 2 mps 707 mmHg 89%
    01:00 +4°C° 0 mm 2 mps 707 mmHg 90%
    02:00 +4°C° 0 mm 2 mps 707 mmHg 89%
    03:00 +4°C° 0 mm 2 mps 706 mmHg 88%
    04:00 +4°C° 0 mm 2 mps 706 mmHg 87%
    05:00 +3°C° 0 mm 2 mps 706 mmHg 87%
    06:00 +3°C° 0 mm 2 mps 707 mmHg 87%
    07:00 +3°C° 0 mm 2 mps 707 mmHg 87%
    08:00 +6°C° 0 mm 2 mps 708 mmHg 78%
    09:00 +8°C° 0 mm 2 mps 708 mmHg 68%
    10:00 +12°C° 0 mm 2 mps 709 mmHg 59%
    11:00 +12°C° 0 mm 2 mps 709 mmHg 58%
    12:00 +12°C° 0 mm 3 mps 708 mmHg 57%
    13:00 +12°C° 0 mm 4 mps 708 mmHg 55%
    14:00 +12°C° 0 mm 4 mps 708 mmHg 54%
    15:00 +12°C° 0 mm 4 mps 708 mmHg 53%
    16:00 +11°C° 0 mm 3 mps 709 mmHg 52%
    17:00 +9°C° 0 mm 3 mps 709 mmHg 64%
    18:00 +7°C° 0 mm 2 mps 709 mmHg 76%
    19:00 +6°C° 0 mm 1 mps 710 mmHg 88%
    20:00 +6°C° 0 mm 1 mps 710 mmHg 90%
    21:00 +5°C° 0 mm 1 mps 711 mmHg 91%
    22:00 +4°C° 0 mm 2 mps 711 mmHg 92%
    23:00 +4°C° 0 mm 2 mps 711 mmHg 91%

    26 August, Monday

    Time Temperature Precipitation Wind Pressure Humidity
    00:00 +4°C° 0 mm 2 mps 711 mmHg 91%
    01:00 +4°C° 0 mm 2 mps 712 mmHg 90%
    02:00 +4°C° 0 mm 2 mps 711 mmHg 88%
    03:00 +4°C° 0 mm 2 mps 711 mmHg 86%
    04:00 +4°C° 0 mm 2 mps 711 mmHg 85%
    05:00 +4°C° 0 mm 2 mps 712 mmHg 84%
    06:00 +4°C° 0 mm 1 mps 712 mmHg 83%
    07:00 +4°C° 0 mm 1 mps 713 mmHg 82%
    08:00 +6°C° 0 mm 1 mps 713 mmHg 73%
    09:00 +7°C° 0 mm 2 mps 713 mmHg 63%
    10:00 +9°C° 0 mm 2 mps 713 mmHg 54%
    11:00 +11°C° 0 mm 1 mps 713 mmHg 51%
    12:00 +12°C° 0 mm 1 mps 713 mmHg 48%
    13:00 +13°C° 0 mm 1 mps 713 mmHg 46%
    14:00 +12°C° 0 mm 1 mps 712 mmHg 46%
    15:00 +12°C° 0 mm 1 mps 712 mmHg 47%
    16:00 +12°C° 0 mm 1 mps 712 mmHg 47%
    17:00 +9°C° 0 mm 2 mps 712 mmHg 57%
    18:00 +7°C° 0 mm 2 mps 713 mmHg 66%
    19:00 +5°C° 0 mm 2 mps 713 mmHg 75%
    20:00 +4°C° 0 mm 2 mps 713 mmHg 78%
    21:00 +5°C° 0 mm 1 mps 714 mmHg 81%
    22:00 +4°C° 0 mm 1 mps 714 mmHg 83%
    23:00 +4°C° 0 mm 1 mps 714 mmHg 86%

    27 August, Tuesday

    Time Temperature Precipitation Wind Pressure Humidity
    00:00 +3°C° 0 mm 1 mps 714 mmHg 88%
    01:00 +3°C° 0 mm 1 mps 714 mmHg 91%
    02:00 +2°C° 0 mm 1 mps 714 mmHg 91%
    03:00 +2°C° 0 mm 1 mps 713 mmHg 92%
    04:00 +2°C° 0 mm 1 mps 713 mmHg 93%
    05:00 +2°C° 0 mm 1 mps 714 mmHg 92%
    06:00 +2°C° 0 mm 1 mps 714 mmHg 92%
    07:00 +2°C° 0 mm 1 mps 715 mmHg 92%
    08:00 +5°C° 0 mm 1 mps 715 mmHg 81%
    09:00 +8°C° 0 mm 1 mps 715 mmHg 70%
    10:00 +12°C° 0 mm 1 mps 715 mmHg 59%
    11:00 +13°C° 0 mm 1 mps 715 mmHg 54%
    12:00 +14°C° 0 mm 1 mps 715 mmHg 50%
    13:00 +15°C° 0 mm 1 mps 714 mmHg 45%
    14:00 +14°C° 0 mm 1 mps 714 mmHg 48%
    15:00 +13°C° 0 mm 1 mps 713 mmHg 50%
    16:00 +13°C° 0 mm 1 mps 713 mmHg 53%
    17:00 +11°C° 0 mm 1 mps 714 mmHg 64%
    18:00 +9°C° 0 mm 1 mps 714 mmHg 76%
    19:00 +6°C° 0 mm 1 mps 714 mmHg 87%
    20:00 +6°C° 0 mm 1 mps 714 mmHg 90%
    21:00 +5°C° 0 mm 1 mps 715 mmHg 92%
    22:00 +5°C° 0 mm 1 mps 715 mmHg 94%
    23:00 +4°C° 0 mm 1 mps 715 mmHg 95%
    Show more